Retour au catalogue

DMSP 5D-2 F13 DEB

ActifSSO
NORAD 40612·DEBRIS·🇺🇸 United States

Lancé Mar 24, 1995 depuis Vandenberg Space Force Base

Loading…

Prochains Passages (prochaines 24 heures)

TLE

FraisSource: Space-Track

Époque: Sep 14, 2026, 07:53 UTC

1 40612U 95015FK  26257.32854763  .00002644  00000-0  85672-3 0  9990
2 40612  98.6752 296.7018 0007196 118.6815 241.5097 14.39816083592173

Suivez DMSP 5D-2 F13 DEB en temps réel avec AllMySat

Download on the App Store